CZ-3B R/B, 45808

Orbit data source: Space-Track

CZ-3B R/B, 45808 is space debris in HEO originally from a launch on Tue, 23 Jun 2020 UTC launched from the Xichang Space Center, China (XSC). Debris objects in space refer to the collection of defunct objects orbiting the Earth. Examples of debris include non-operational satellites, rocket bodies, and fragments generated from explosions, collisions, or faulty payload assembly.

Loading next visibility...
Identifier
45808, 2020-040B
Orbit
HEO
Country
Flag of CNCN / PRC
Related business
Manufacturer
CALT
Mission
Spacecraft
Bus & Motor
CZ-3A STAGE 3, Unknown motor
Mass
~2,800 kg wet, ~2,800 kg dry
Launch date (UTC)
2020-06-23 (5 years ago)
Launch vehicle
Unknown
Launch site
Xichang Space Center, China (XSC)
Object type
Payload
Rocket body
Debris
Shape & HBR
Cyl + 1 Nozzle, 6.2 m
Radar Cross Section
32.704 m², Large (>1 m²)

Expand to show TLE details & history
Last TLE update: 1 day ago

TLE from 1 day ago
0 CZ-3B R/B
1 45808U 20040B   25303.46291464  .00012837  00000-0  16018-2 0  9999
2 45808  28.2261 105.2952 6588525 220.9017  64.2012  3.21461551 53654
Epoch: 2025-10-30T11:06Z
TLE epoch observation values (Epoch: 2025-10-30T11:06:35.824Z)
Latitude
-0.00012°
Longitude
-100.41487°
Altitude
15,477.583 km
Speed
3.99 km/s
True Right ascension
07h 01m 01s
True Declination
0° 00' 00"
Sunlit
Object was in daylight at epoch
Visualization orbit readout
Latitude
Unknown
Longitude
Unknown
Altitude
Unknown
Speed
Unknown
Apparent Right ascension
Unknown
Apparent Declination
Unknown
Sunlit
N/A
Visualization observer readout
Local Sidereal Time
18:35:10
Azimuth
Unknown
Elevation
Unknown
Doppler factor
Unknown
Orbital elements
Apogee altitude
25,798.198 km
Perigee altitude
239.013 km
Semi-major axis
19,396.742 km
Eccentricity
0.65885
Inclination
28.2261°
RAAN
105.2952°
Arg. of periapsis
220.9017°
True anomaly
139.15799°
Mean anomaly
64.2012°
Eccentric anomaly
101.22813°
Mean motion
0.80343 °/min
Orbital period
448.08 mins
BSTAR
0.0016018
Loading maneuver chart data...
Computing Atmospheric mass density...
Loading historical data...
Loading historical data...
Loading historical data...
Loading historical data...
Loading historical data...
Loading historical data...
Loading historical data...
Other satellites on launch #40 in the year 2020 (2020-06-23 UTC)

Documentation

Showing up to 5 results
|